[[{"header":{"parameterUnit":"m.s-1","parameterCategory":1,"la1":30.2991,"la2":30.254,"lo1":-89.0895,"lo2":-89.0444,"dy":0.0017,"dx":0.0017,"nx":28,"ny":28,"refTime":"2024-06-16T09:00:00:Z","depth":0,"parameterNumber":2,"parameterNumberName":"U-component_of_WINDS"},"data":[0,0,0,0,0,0,0,0,0,0,0,0,0,0,0,0,0,0,0,0,0,0,0,0,0,0,0,0,0,0,0,0,0,0,0,0,0,0,0,0,0,0,0,0,0,0,0,0,0,0,0,0,0,0,0,0,0,0,-5.976,-5.9763,0,-6.0065,-6.0069,-6.0072,-6.015,-6.0148,-6.0146,-6.0144,-6.0452,-6.0462,-6.0472,0,0,0,0,0,0,0,0,0,0,0,0,0,-5.9241,-5.925,-5.976,-5.9764,-5.9768,-6.0065,-6.0069,-6.0073,-6.015,-6.0148,-6.0145,-6.0143,-6.0449,-6.0461,-6.0473,0,0,0,0,0,0,0,0,0,0,0,0,0,-5.9498,-5.9253,-5.9759,-5.9842,-5.9852,-6.0064,-6.0069,-6.0074,-6.015,-6.0147,-6.0145,-6.0142,-6.0445,-6.046,-6.0475,-6.0625,0,0,-6.052,-6.0527,0,0,0,0,0,0,0,0,-5.9484,-5.9517,-5.9826,-5.9836,-5.9849,-6.0067,-5.9999,-6.0259,-6.0151,-6.0037,-6.0144,-6.014,-6.0326,-6.0351,-6.0414,-6.0639,-6.0652,-6.0522,-6.0531,-6.0537,-6.0542,0,0,0,0,0,0,0,-5.9466,-5.9505,-5.9881,-5.983,-5.9844,-5.9863,-5.9896,-6.0049,-6.0194,-6.0047,-6.0053,-6.0088,-6.0332,-6.0399,-6.0422,-6.0657,-6.0521,-6.0535,-6.0544,-6.055,-6.1022,-6.1026,0,0,0,0,0,0,-5.9434,-5.9489,-5.9871,-5.989,-5.9655,-5.9874,-5.9912,-5.9999,-6.0192,-6.0219,-6.0091,-6.0091,-6.0375,-6.0404,-6.0433,-6.0622,-6.0537,-6.0551,-6.056,-6.1019,-6.1023,-6.1027,0,0,0,0,0,0,-5.9423,-5.9467,-5.9859,-5.9692,-5.9743,-5.9887,-5.9984,-6.0007,-6.0075,-6.0226,-6.0251,-6.0133,-6.0374,-6.0412,-6.0577,-6.0634,-6.0558,-6.0572,-6.1015,-6.102,-6.1025,-6.1001,0,0,0,0,0,0,-5.9407,-5.9463,-5.9522,-5.9692,-5.9751,-5.9998,-5.9988,-6.0015,-6.0101,-6.0104,-6.0273,-6.0298,-6.0375,-6.0554,-6.0592,-6.0653,-6.0583,-6.101,-6.1017,-6.1023,-6.0997,-6.1005,-6.1011,0,0,0,0,0,-5.9389,-5.9502,-5.9524,-5.957,-5.9828,-6.0001,-6.0035,-6.0123,-6.0105,-6.0165,-6.0263,-6.0292,-6.0622,-6.0571,-6.0614,-6.068,-6.1007,-6.1015,-6.1023,-6.0994,-6.1003,-6.1011,0,0,0,0,0,0,-5.9332,-5.9525,-5.9553,-5.9724,-5.9846,-6.0014,-6.0092,-6.0129,-6.0257,-6.0255,-6.0357,-6.0395,-6.0553,-6.0634,-6.0573,-6.0837,-6.0815,-6.0831,-6.0778,-6.0788,-6.0795,-6.0771,-6.0596,0,0,0,0,0,-5.934,-5.9465,-5.9627,-5.9763,-5.9823,-5.9947,-6.0026,-6.0083,-6.0213,-6.0264,-6.0373,-6.0497,-6.0629,-6.0713,-6.0843,-6.101,-6.1048,-6.1078,-6.1084,-6.1089,-6.1102,-6.1198,-6.1213,-6.1053,-6.1053,-6.1053,0,0,-5.9356,-5.9478,-5.955,-5.9755,-5.9856,-5.9983,-5.999,-6.0123,-6.0218,-6.0284,-6.0447,-6.0532,-6.0677,-6.0844,-6.0923,-6.0916,-6.1155,-6.11,-6.1102,-6.1113,-6.1207,-6.1222,-6.1236,-6.1059,-6.1058,-6.1057,0,0,-5.9452,-5.9556,-5.9681,-5.9783,-5.9937,-6.0019,-6.0049,-6.0213,-6.0272,-6.0438,-6.049,-6.0604,-6.0829,-6.093,-6.1011,-6.1148,-6.118,-6.1187,-6.1223,-6.1315,-6.1327,-6.1339,-6.1387,-6.1403,-6.12,-6.12,-6.12,0,-5.9453,-5.9647,-5.974,-5.9873,-5.9961,-6.0029,-6.0156,-6.025,-6.0437,-6.0496,-6.0486,-6.0771,-6.0873,-6.1066,-6.1099,-6.1163,-6.12,-6.1167,-6.1318,-6.1331,-6.1343,-6.139,-6.1408,-6.12,-6.12,-6.12,-6.12,0,-5.964,-5.9774,-5.9857,-6.0038,-6.0136,-6.0264,-6.0377,-6.0465,-6.0515,-6.0598,-6.0766,-6.0892,-6.1049,-6.1099,-6.1148,-6.1299,-6.129,-6.1298,-6.1277,-6.1356,-6.1402,-6.1421,-6.1199,-6.12,-6.12,-6.12,0,0,-5.9706,-5.9939,-5.9968,-6.0051,-6.0227,-6.0332,-6.0464,-6.0619,-6.0692,-6.082,-6.0933,-6.1123,-6.1132,-6.1224,-6.1285,-6.1366,-6.1466,-6.1365,-6.1369,-6.1378,-6.1641,-6.1633,-6.1652,-6.149,-6.1494,-6.1497,-6.1628,0,-5.9823,-6.0062,-6.0151,-6.0346,-6.0471,-6.0539,-6.0654,-6.0774,-6.0856,-6.0973,-6.1064,-6.1197,-6.1199,-6.1255,-6.1338,-6.1436,-6.152,-6.1428,-6.1595,-6.16,-6.1555,-6.1677,-6.1668,-6.1786,-6.1647,-6.165,-6.1653,0,-5.999,-6.0121,-6.0329,-6.049,-6.0546,-6.0648,-6.0798,-6.091,-6.1047,-6.1102,-6.1205,-6.1262,-6.1403,-6.1376,-6.1571,-6.1507,-6.1581,-6.1639,-6.1646,-6.1664,-6.1629,-6.1696,-6.1826,-6.1843,-6.1682,-6.168,-6.1677,0,-6.0016,-6.0245,-6.0399,-6.0469,-6.0661,-6.0731,-6.0814,-6.0949,-6.1037,-6.1168,-6.1226,-6.1371,-6.145,-6.1562,-6.1656,-6.1627,-6.1843,-6.1823,-6.1891,-6.1889,-6.1932,-6.1928,-6.2075,-6.1982,-6.1981,-6.1981,-6.1981,0,-6.0136,-6.0261,-6.0414,-6.0509,-6.0651,-6.0752,-6.089,-6.0977,-6.1097,-6.121,-6.1277,-6.1382,-6.1501,-6.1621,-6.1696,-6.1847,-6.1882,-6.1929,-6.1947,-6.1923,-6.1917,-6.1971,-6.1965,-6.1986,-6.1985,-6.1984,-6.1983,0,-6.0189,-6.0297,-6.047,-6.0638,-6.0683,-6.078,-6.0925,-6.1019,-6.1105,-6.1247,-6.1286,-6.1421,-6.1566,-6.1672,-6.1858,-6.1909,-6.207,-6.2089,-6.2024,-6.2033,-6.2095,-6.2087,-6.2281,-6.2311,-6.2198,-6.2199,-6.22,0,-6.0258,-6.0356,-6.0535,-6.0616,-6.0699,-6.0829,-6.0919,-6.1024,-6.1115,-6.128,-6.1355,-6.1505,-6.163,-6.1859,-6.1973,-6.2116,-6.2139,-6.2197,-6.216,-6.2133,-6.2139,-6.2132,-6.2142,-6.2201,-6.2202,-6.2202,-6.2203,0,-6.0369,-6.0418,-6.0546,-6.0693,-6.08,-6.0921,-6.1042,-6.1105,-6.1231,-6.133,-6.148,-6.1577,-6.1769,-6.1917,-6.2073,-6.2158,-6.2202,-6.2214,-6.2237,-6.2212,-6.217,-6.2194,-6.2037,-6.2208,-6.2208,-6.2207,-6.2207,-6.2207,-6.0432,-6.0522,-6.0663,-6.0804,-6.0907,-6.1019,-6.1117,-6.1216,-6.1342,-6.1507,-6.1561,-6.1716,-6.1853,-6.2066,-6.2154,-6.2277,-6.2275,-6.2309,-6.2317,-6.2324,-6.2322,-6.2152,-6.2305,-6.2305,-6.2305,-6.2305,-6.2305,0,-6.0546,-6.064,-6.0769,-6.0938,-6.1049,-6.1082,-6.1219,-6.1309,-6.1445,-6.1569,-6.1692,-6.1864,-6.2008,-6.2135,-6.2285,-6.2359,-6.2383,-6.2395,-6.239,-6.2409,-6.2315,-6.228,-6.2373,-6.2373,-6.2373,-6.2373,-6.2373,-6.2373,-6.0619,-6.0773,-6.0839,-6.1045,-6.1139,-6.1291,-6.1367,-6.1471,-6.1571,-6.1761,-6.1881,-6.1963,-6.2089,-6.2249,-6.2383,-6.2417,-6.2469,-6.2476,-6.2514,-6.2423,-6.2415,-6.2407,-6.2375,-6.2486,-6.2486,-6.2597,-6.2598,-6.2599]},{"header":{"parameterUnit":"m.s-1","parameterCategory":1,"la1":30.2991,"la2":30.254,"lo1":-89.0895,"lo2":-89.0444,"dy":0.0017,"dx":0.0017,"nx":28,"ny":28,"refTime":"2024-06-16T09:00:00:Z","depth":0,"parameterNumber":3,"parameterNumberName":"V-component_of_WINDS"},"data":[0,0,0,0,0,0,0,0,0,0,0,0,0,0,0,0,0,0,0,0,0,0,0,0,0,0,0,0,0,0,0,0,0,0,0,0,0,0,0,0,0,0,0,0,0,0,0,0,0,0,0,0,0,0,0,0,0,0,3.7674,3.7675,0,3.7806,3.7808,3.7809,3.7874,3.7874,3.7874,3.7874,3.8001,3.8005,3.8008,0,0,0,0,0,0,0,0,0,0,0,0,0,3.7468,3.7472,3.7673,3.7675,3.7677,3.7806,3.7808,3.781,3.7874,3.7874,3.7874,3.7874,3.8,3.8004,3.8008,0,0,0,0,0,0,0,0,0,0,0,0,0,3.7575,3.7473,3.7673,3.7725,3.7731,3.7806,3.7808,3.781,3.7874,3.7874,3.7874,3.7874,3.7999,3.8004,3.8009,3.804,0,0,3.8024,3.8027,0,0,0,0,0,0,0,0,3.7569,3.7582,3.7715,3.7721,3.7728,3.7824,3.7782,3.7887,3.7874,3.7819,3.7874,3.7874,3.7942,3.7951,3.7976,3.8046,3.8052,3.8025,3.8028,3.803,3.8032,0,0,0,0,0,0,0,3.7561,3.7577,3.7726,3.7717,3.7725,3.7739,3.7754,3.7803,3.7878,3.7824,3.7829,3.7844,3.7945,3.7971,3.798,3.8054,3.8025,3.8029,3.8032,3.8034,3.8157,3.8157,0,0,0,0,0,0,3.7546,3.757,3.7722,3.773,3.7647,3.7742,3.7759,3.7793,3.7878,3.7891,3.7844,3.7847,3.7962,3.7974,3.7984,3.8028,3.803,3.8035,3.8038,3.8156,3.8157,3.8157,0,0,0,0,0,0,3.7542,3.7559,3.7716,3.7652,3.7673,3.7746,3.7783,3.7796,3.7822,3.7894,3.7907,3.7857,3.7963,3.7977,3.8027,3.8033,3.8037,3.8042,3.8156,3.8156,3.8157,3.8113,0,0,0,0,0,0,3.7536,3.7557,3.7572,3.7652,3.7676,3.7758,3.7784,3.7798,3.7831,3.7836,3.7909,3.7921,3.7964,3.8019,3.8032,3.804,3.8046,3.8156,3.8156,3.8157,3.8115,3.8112,3.811,0,0,0,0,0,3.7528,3.7552,3.7572,3.759,3.7696,3.7759,3.7772,3.7823,3.7832,3.7846,3.7892,3.7919,3.803,3.8023,3.8038,3.8048,3.8156,3.8156,3.8157,3.8116,3.8113,3.811,0,0,0,0,0,0,3.7468,3.7563,3.7587,3.7638,3.769,3.777,3.7789,3.7818,3.7867,3.7869,3.7927,3.7943,3.7988,3.8023,3.8013,3.8083,3.8095,3.8099,3.8059,3.8057,3.8055,3.8045,3.805,0,0,0,0,0,3.7461,3.7507,3.7587,3.7624,3.7649,3.7714,3.7744,3.7779,3.7834,3.7856,3.7906,3.7956,3.8002,3.8031,3.8078,3.812,3.8137,3.8134,3.8132,3.813,3.8132,3.8157,3.8157,3.8158,3.8158,3.8158,0,0,3.7446,3.7504,3.7529,3.7613,3.7658,3.7702,3.7732,3.7777,3.781,3.7861,3.7913,3.7951,3.8011,3.8057,3.808,3.8087,3.8135,3.813,3.8128,3.8131,3.8157,3.8157,3.8157,3.8159,3.8158,3.8158,0,0,3.7442,3.7491,3.7528,3.7573,3.7642,3.7685,3.7694,3.7769,3.7798,3.7851,3.789,3.7928,3.8007,3.8049,3.808,3.8093,3.812,3.8106,3.8094,3.8118,3.8118,3.8118,3.8123,3.8124,3.8108,3.8108,3.8108,0,3.7415,3.7486,3.7542,3.7587,3.7622,3.7674,3.7711,3.775,3.7829,3.7851,3.786,3.7961,3.8004,3.8061,3.8065,3.8088,3.8099,3.8098,3.8114,3.8115,3.8116,3.8121,3.8123,3.8106,3.8106,3.8106,3.8107,0,3.7448,3.7496,3.7518,3.7596,3.7634,3.7674,3.7735,3.7766,3.7798,3.7839,3.7892,3.7947,3.8006,3.8022,3.8051,3.8083,3.8086,3.8103,3.8117,3.8113,3.8119,3.8121,3.8103,3.8104,3.8104,3.8105,0,0,3.7409,3.7521,3.7527,3.7564,3.7644,3.7681,3.7722,3.7784,3.7809,3.7861,3.7897,3.7963,3.798,3.8016,3.8051,3.8072,3.8079,3.8087,3.8089,3.8084,3.8117,3.8104,3.8105,3.8097,3.8098,3.8099,3.8112,0,3.7417,3.7497,3.755,3.7609,3.7654,3.7704,3.774,3.7792,3.7832,3.7874,3.7917,3.7964,3.7983,3.8004,3.8028,3.8073,3.8086,3.8073,3.8129,3.8131,3.8114,3.8109,3.8094,3.8105,3.8115,3.8115,3.8116,0,3.7436,3.7491,3.7555,3.7631,3.7652,3.7684,3.7744,3.7785,3.7844,3.7871,3.7912,3.7948,3.7992,3.8002,3.8063,3.8053,3.8079,3.8105,3.8106,3.8113,3.8123,3.8115,3.8109,3.8111,3.812,3.8119,3.8119,0,3.7402,3.7491,3.7541,3.7571,3.7661,3.7682,3.772,3.778,3.7813,3.7865,3.7887,3.7942,3.7972,3.8013,3.8062,3.8065,3.8118,3.8132,3.8141,3.814,3.815,3.8149,3.8148,3.8166,3.8166,3.8166,3.8166,0,3.7404,3.7441,3.7528,3.7558,3.7601,3.766,3.77,3.7742,3.7795,3.7833,3.7878,3.7913,3.7976,3.8018,3.8056,3.8101,3.8114,3.8136,3.8146,3.8133,3.813,3.815,3.8151,3.8167,3.8167,3.8166,3.8166,0,3.7373,3.7432,3.749,3.7572,3.7593,3.7621,3.769,3.7721,3.7764,3.7812,3.7826,3.7893,3.7945,3.7999,3.8067,3.8093,3.8136,3.815,3.8117,3.8123,3.813,3.8128,3.8142,3.8147,3.8161,3.8161,3.8161,0,3.7371,3.7401,3.7487,3.7518,3.7556,3.7604,3.7639,3.7699,3.7733,3.7804,3.7825,3.7881,3.7929,3.8008,3.8061,3.8114,3.8129,3.8131,3.8137,3.8123,3.813,3.8128,3.8131,3.8128,3.8128,3.8127,3.8127,0,3.7361,3.7389,3.744,3.7502,3.7544,3.7594,3.7646,3.7668,3.7737,3.7773,3.7828,3.7865,3.7937,3.7991,3.8051,3.8088,3.8118,3.8125,3.813,3.8116,3.8096,3.8108,3.8111,3.8124,3.8124,3.8124,3.8125,3.8125,3.7345,3.7374,3.744,3.7495,3.7542,3.7589,3.7623,3.7672,3.772,3.7785,3.7817,3.7872,3.793,3.8014,3.805,3.8092,3.8101,3.8108,3.811,3.8111,3.8108,3.809,3.8103,3.8103,3.8103,3.8103,3.8104,0,3.7337,3.7383,3.7433,3.7506,3.7549,3.7578,3.7637,3.7671,3.772,3.7773,3.782,3.7883,3.7936,3.7995,3.8051,3.8074,3.8089,3.8086,3.8085,3.8093,3.8096,3.8087,3.8073,3.8073,3.8073,3.8073,3.8073,3.8073,3.7339,3.7391,3.7427,3.7502,3.7547,3.7604,3.7635,3.7679,3.7722,3.7792,3.7838,3.7876,3.7932,3.7993,3.8042,3.8058,3.8076,3.8069,3.8089,3.809,3.8093,3.8095,3.8086,3.8073,3.8073,3.8082,3.8082,3.8082]}]]